Theta_e
313 313 320 323 323 325 325 330 332 337 337 329 330 323 315 321 320 322 323 321 323 323 323 321 321 320 319 321 321 321 324 326 326 324 326 336 331 324 325 323 329 330 334 339 336 335 337 339 341 341 341 341 341 341 341 341 341 341 340 335 331 336 337 336 337 336 335 335 334 333 331 332 334 335 333 333 332 334 337 337 339 339 340 340 341 341 341 340 338 336 336 335 333 331 330 330 328
315 316 322 322 324 324 329 337 333 340 339 320 322 320 314 324 323 322 326 324 327 324 324 323 322 323 321 321 320 321 321 321 325 325 330 332 327 325 324 326 330 330 335 338 336 335 336 339 340 341 340 340 340 340 340 340 341 341 339 333 332 337 337 336 336 335 336 335 333 334 334 335 337 338 337 337 335 335 335 336 339 339 340 340 340 341 341 339 337 337 336 335 335 334 332 331 328
320 320 323 321 324 326 337 340 334 339 333 315 318 326 318 320 322 323 328 327 329 325 323 322 322 324 321 322 320 321 323 321 327 335 336 328 326 325 323 330 331 331 335 336 337 335 336 338 340 340 340 340 340 340 339 340 341 341 339 333 333 337 336 336 336 337 337 335 335 336 338 338 339 339 339 339 338 337 336 336 338 339 340 340 340 341 340 339 337 336 335 335 335 335 335 333 331
323 324 323 323 330 335 344 338 340 339 325 319 318 323 325 321 322 324 327 326 327 323 321 321 321 322 320 323 321 320 323 321 325 336 338 327 325 323 322 330 332 333 334 336 337 335 336 337 339 339 340 340 339 340 339 340 341 341 339 333 334 336 337 336 336 337 337 336 337 338 339 339 340 340 339 340 339 339 337 337 338 339 340 340 340 339 339 337 336 334 333 334 335 334 335 335 335
323 326 322 324 332 334 338 330 335 330 320 326 318 320 328 324 325 322 324 323 323 321 321 322 321 321 319 322 322 321 323 321 320 325 327 324 326 323 322 327 331 334 335 337 337 336 335 336 339 339 339 340 339 340 339 340 340 341 339 333 334 336 336 336 336 337 336 336 338 339 339 339 340 340 340 340 339 339 338 338 339 339 339 339 339 338 337 335 333 331 329 329 333 334 334 334 334
322 325 323 323 323 324 333 325 324 326 327 332 320 321 325 323 324 321 322 321 321 321 321 321 321 321 320 323 321 319 322 321 322 326 324 322 327 324 321 324 330 335 336 337 337 336 335 335 338 339 339 340 340 339 339 340 339 340 338 333 333 335 336 336 336 336 335 336 338 338 338 339 339 340 340 340 339 338 338 339 339 339 339 339 338 336 335 333 331 330 328 325 327 330 332 333 333
322 323 328 329 323 325 333 324 326 332 328 325 323 323 321 322 323 320 322 320 321 320 320 321 320 320 321 322 319 319 322 321 322 327 324 322 325 324 322 324 330 335 336 337 337 336 335 335 337 338 339 339 340 339 339 340 340 340 338 332 333 335 335 336 336 335 335 337 338 338 338 339 339 340 340 339 339 338 337 338 338 338 338 337 336 335 333 332 331 330 329 326 323 322 323 325 325
323 322 329 338 334 334 332 325 332 333 324 320 322 322 320 323 323 322 322 320 320 320 321 323 321 321 320 319 322 322 321 322 322 324 323 321 321 323 323 324 329 334 336 338 338 337 335 335 336 338 338 338 339 339 339 339 340 340 338 333 333 335 334 336 336 335 335 337 338 337 338 338 339 340 339 339 339 338 336 336 337 337 337 336 335 333 332 331 331 330 329 328 325 319 314 311 311
322 320 327 336 332 336 336 329 327 325 324 322 317 319 321 321 323 322 322 321 320 321 323 323 321 321 321 320 324 323 320 324 322 322 322 320 320 322 323 323 326 330 336 339 338 337 334 334 335 337 337 337 338 339 338 339 340 340 339 335 334 335 335 337 336 335 336 337 337 337 337 338 339 340 339 339 338 337 335 335 336 336 336 335 334 332 331 331 330 330 329 328 325 320 312 304 302
326 322 326 335 331 330 332 330 327 322 322 323 317 319 321 319 322 322 322 320 319 321 321 321 320 320 321 321 324 322 322 325 321 321 320 320 321 321 323 324 324 326 332 338 339 338 335 334 334 336 336 336 337 338 338 338 340 339 339 337 335 334 335 336 336 336 336 336 337 336 337 338 339 339 339 339 337 337 335 334 335 335 335 334 333 331 331 330 330 329 328 327 323 317 308 300 299
336 334 335 339 332 325 325 326 328 325 324 323 320 320 321 321 322 322 322 319 318 321 320 319 320 322 321 322 327 323 322 324 320 320 319 320 321 320 323 326 328 327 328 333 338 339 337 335 334 335 335 336 336 337 338 338 339 339 339 338 336 335 335 336 335 336 337 337 337 336 337 337 339 339 339 338 337 336 335 335 334 334 333 332 331 330 329 329 328 327 326 324 319 311 302 298 298
336 339 344 337 326 324 327 326 324 329 332 324 319 321 320 320 321 320 320 318 318 320 320 320 318 321 320 324 328 321 321 325 321 319 318 319 320 320 323 328 331 331 330 331 335 338 338 336 334 334 334 335 335 336 337 338 339 339 338 338 337 336 336 336 336 336 336 337 337 337 338 338 339 339 339 338 337 336 335 334 333 333 331 330 328 327 328 327 326 325 324 319 313 305 298 298 298
333 334 339 327 325 327 323 325 328 333 335 324 319 321 318 318 321 320 320 319 319 318 320 321 319 319 320 324 326 324 323 322 320 319 317 318 320 320 323 329 332 333 334 333 334 336 339 339 336 335 335 335 336 335 336 337 339 339 339 338 337 336 336 336 336 336 336 337 338 338 338 338 339 339 338 337 337 336 335 334 333 332 330 329 327 326 326 326 324 323 320 314 308 301 297 298 298
329 333 335 322 327 330 321 324 328 326 323 323 322 320 319 317 320 321 320 318 321 319 317 320 319 318 319 320 328 337 328 319 319 318 318 319 321 321 322 328 330 332 335 334 334 335 338 340 338 337 335 336 336 336 336 336 338 339 339 338 337 336 336 336 336 336 336 336 338 338 337 338 339 339 338 337 337 336 335 334 332 330 329 328 326 324 324 324 322 319 315 309 305 298 297 298 298
324 339 341 326 328 330 324 322 323 322 318 323 322 317 319 316 318 320 318 317 321 320 315 316 316 316 318 316 325 334 324 318 320 319 319 319 321 322 323 326 327 328 332 334 333 335 338 339 340 338 337 336 336 337 337 337 337 337 337 337 337 336 336 336 337 337 336 336 338 338 337 338 339 338 338 337 336 335 334 333 332 330 329 327 324 323 322 322 320 315 311 307 302 298 298 298 298
330 344 338 327 328 326 325 323 324 325 320 324 322 315 317 316 316 318 317 316 318 319 316 316 315 316 318 318 318 319 317 319 322 321 320 319 322 325 325 327 327 327 329 333 333 334 338 339 340 340 338 337 336 337 337 337 337 337 337 337 337 336 337 337 337 337 336 336 337 337 337 338 338 338 337 337 336 335 334 332 331 330 328 326 324 322 321 320 319 314 309 305 299 297 298 298 298
338 341 331 326 328 325 327 325 321 321 320 326 324 316 315 316 317 316 315 315 318 320 319 319 316 315 318 319 316 315 316 320 322 322 320 321 324 327 329 329 329 329 330 333 333 334 337 339 340 340 339 338 338 337 337 337 337 338 338 338 337 337 337 337 337 337 336 336 337 337 337 337 337 337 337 336 335 334 333 332 331 329 328 326 323 321 320 319 317 313 308 302 298 298 298 297 298
338 333 325 325 329 330 332 327 319 318 319 321 319 316 315 317 318 316 315 317 319 319 318 318 315 315 316 315 314 314 317 320 322 322 322 324 325 327 330 330 329 329 330 333 333 334 336 338 339 339 339 339 338 338 337 337 337 338 338 338 338 337 337 338 338 337 337 336 337 337 337 336 336 336 336 335 334 333 333 332 330 329 327 326 323 319 319 317 315 311 306 301 298 297 297 297 297
333 332 324 330 337 332 330 325 318 317 317 317 318 317 316 316 317 315 315 318 318 317 316 316 316 316 314 313 313 314 317 319 321 321 323 325 325 326 327 330 331 329 329 330 331 333 336 337 338 338 338 338 338 338 338 337 337 337 338 338 338 338 338 338 338 338 337 337 337 337 336 336 336 335 335 334 334 333 332 331 329 328 327 326 322 316 316 316 314 310 305 300 298 297 297 297 297
331 330 325 337 340 330 327 322 319 318 315 317 319 318 317 317 317 315 315 317 316 316 316 315 316 316 315 316 313 315 319 320 321 321 321 323 324 324 325 326 329 327 324 324 326 330 334 336 337 337 337 337 337 338 338 337 337 337 337 338 338 338 338 338 338 338 337 337 337 336 336 336 335 335 334 334 333 332 331 329 328 327 326 325 321 314 313 315 315 311 306 300 297 297 297 297 298
325 324 327 339 332 324 326 324 322 319 315 316 318 318 317 316 316 315 315 317 316 315 316 315 316 314 315 315 312 315 318 318 320 321 320 319 320 321 321 322 322 321 320 321 323 326 330 333 335 336 336 337 336 337 338 337 337 336 336 337 338 338 338 338 338 338 338 337 337 336 336 336 335 335 334 334 333 331 330 328 327 326 325 324 320 314 311 314 316 312 307 300 297 297 297 297 298
322 323 327 333 325 320 324 325 322 317 316 317 317 317 316 316 316 316 316 316 316 315 316 316 316 315 314 313 311 314 318 319 317 318 319 318 318 318 318 319 318 319 320 321 321 320 323 328 332 334 335 336 336 336 336 337 336 335 336 337 337 337 337 338 338 338 338 337 337 336 336 336 335 335 334 333 332 330 329 328 327 326 325 324 321 315 311 312 313 311 306 301 298 297 297 297 297
322 323 324 327 322 320 321 321 319 317 316 316 318 317 315 316 316 316 317 316 316 315 316 315 315 313 311 311 310 314 323 325 317 315 318 318 318 318 318 318 318 319 319 320 319 319 319 321 327 332 335 335 335 335 335 335 335 334 335 336 337 337 337 337 338 338 337 337 337 336 336 336 335 334 333 332 330 329 328 327 326 325 325 324 322 318 312 310 310 309 306 303 298 297 297 297 297
321 323 324 324 321 320 320 318 318 318 316 316 317 315 314 315 315 316 317 316 315 314 314 313 311 309 310 311 312 313 316 316 313 313 315 316 317 317 317 317 317 318 319 319 318 319 319 319 322 328 333 334 334 335 334 334 333 333 333 335 337 337 337 337 337 337 337 336 336 336 335 335 334 333 332 331 329 328 327 326 326 325 325 323 322 319 314 311 310 308 306 304 299 297 297 296 297
321 321 321 319 318 319 319 317 317 318 316 315 314 314 314 314 313 314 315 314 314 314 314 314 311 311 312 314 315 313 311 309 308 309 310 311 312 313 314 315 316 317 318 318 319 319 319 320 320 323 328 331 333 334 334 335 334 333 333 334 335 335 336 336 336 337 337 336 335 335 334 334 333 332 331 330 328 327 326 326 325 325 324 323 322 319 315 312 311 309 306 304 301 297 296 296 296
318 317 316 316 316 316 316 316 316 316 314 313 313 315 314 313 313 314 316 316 315 314 314 314 313 313 314 314 313 310 310 309 306 307 308 309 310 310 311 313 314 315 316 318 319 319 319 320 321 321 323 326 330 333 334 335 334 334 333 333 334 334 335 335 335 335 336 336 335 333 333 332 331 331 330 329 328 327 326 326 325 325 324 323 321 319 315 313 312 310 307 305 303 299 297 296 296
314 314 315 315 315 314 315 315 315 313 313 313 313 315 314 313 314 315 318 319 316 314 315 315 313 314 314 312 310 307 308 308 307 307 308 308 309 308 309 311 313 314 316 316 317 319 320 321 321 321 322 324 327 331 332 334 335 334 334 334 334 335 335 335 335 335 335 335 335 334 333 332 331 330 330 329 328 327 326 325 325 324 324 322 321 318 315 313 313 312 309 306 304 301 298 297 296
313 313 315 317 316 315 315 314 314 312 313 315 314 315 315 313 314 316 317 317 314 314 315 314 313 314 313 310 308 307 308 308 307 307 307 307 307 307 308 309 312 314 315 316 317 317 318 321 322 322 323 324 326 328 330 332 334 334 335 335 335 336 336 335 335 336 336 335 335 334 333 332 331 330 329 329 328 327 326 325 325 324 323 322 320 318 315 313 314 314 312 309 307 305 301 298 296
314 313 314 317 316 315 316 314 313 312 314 316 315 315 318 316 317 318 316 314 313 314 315 313 313 312 309 308 308 309 308 307 307 307 306 307 307 307 307 308 311 314 316 316 317 317 317 319 321 323 324 325 325 326 328 330 332 334 335 335 335 335 335 335 335 335 335 334 333 332 331 330 330 329 328 328 327 326 326 325 324 323 323 321 320 319 316 314 315 315 314 313 311 308 303 299 296
315 313 312 315 316 317 317 314 313 312 313 316 314 316 323 323 319 317 315 312 313 314 314 313 312 309 307 308 309 308 307 306 306 306 306 306 306 306 307 309 311 315 317 317 317 317 318 319 322 324 325 326 326 326 328 329 331 332 333 333 333 333 334 334 334 333 333 332 332 331 330 330 329 328 328 327 327 326 325 325 324 323 322 321 320 319 316 315 315 315 315 314 312 309 304 299 296
314 312 315 316 315 321 322 315 314 315 314 313 313 316 323 323 319 318 314 310 312 315 315 312 310 307 308 309 308 307 306 305 305 305 305 305 305 306 306 309 312 315 318 319 319 319 319 321 324 326 327 327 328 328 329 330 330 331 331 331 331 331 332 332 332 332 331 331 331 330 329 329 328 328 328 327 326 326 325 324 324 322 321 321 320 318 317 315 315 315 315 314 312 309 304 299 297
319 314 323 324 316 321 324 315 316 317 314 312 312 317 320 318 319 320 317 312 312 314 314 311 309 308 309 308 307 306 305 304 304 304 304 304 305 305 306 307 310 314 316 318 319 320 321 323 324 325 327 327 328 328 329 329 330 330 330 330 330 330 329 330 330 330 330 329 329 329 328 328 328 328 327 326 326 325 325 324 323 322 321 320 319 318 317 316 314 315 314 314 312 309 304 299 297
325 316 323 328 318 319 320 317 318 316 314 313 313 317 317 318 320 320 318 315 312 314 314 311 309 309 308 306 306 305 304 303 303 303 303 303 304 304 304 306 308 310 312 314 316 318 320 321 322 323 324 326 326 327 328 328 329 329 329 329 329 328 328 328 328 328 328 327 328 327 327 327 327 327 326 326 325 325 324 323 323 322 321 320 319 318 317 316 314 314 314 313 312 310 305 300 298
328 320 319 324 320 316 318 320 320 316 316 316 315 315 315 317 318 317 315 313 313 315 314 312 310 308 307 305 304 303 303 303 302 302 302 302 303 303 303 304 306 308 309 311 312 314 316 318 319 321 323 323 324 325 326 326 327 327 327 327 326 326 326 327 327 326 326 326 326 326 326 326 326 326 326 325 324 324 324 323 322 321 321 320 319 317 316 316 315 314 314 313 311 310 306 302 299
327 324 320 322 322 318 318 319 320 319 319 319 318 317 317 317 316 315 314 312 314 316 313 311 309 308 306 305 304 303 302 302 301 301 301 301 302 302 302 303 305 306 307 308 310 311 313 315 317 320 321 322 322 323 323 323 324 324 324 324 324 324 325 325 325 324 324 324 324 325 325 325 325 325 325 325 324 323 323 322 322 321 320 319 318 317 316 315 315 314 314 312 311 309 306 302 299
323 323 321 322 322 320 318 318 319 317 317 319 319 318 319 319 318 316 313 312 313 314 312 309 308 307 305 304 303 303 302 301 301 301 300 301 301 301 301 302 303 305 306 307 308 309 310 312 315 317 319 320 320 321 321 322 322 322 322 322 322 322 322 323 323 323 322 322 322 323 323 323 323 323 323 323 323 322 322 321 321 320 319 318 317 316 315 315 315 314 313 312 310 308 305 301 298
316 317 318 319 320 319 317 318 320 316 316 321 319 318 320 320 320 316 313 316 314 311 311 309 307 306 305 304 303 302 302 301 301 300 300 300 300 300 300 301 302 304 304 305 306 306 307 308 310 312 314 315 316 317 318 319 319 319 320 319 319 319 320 320 320 320 320 320 320 320 320 320 321 321 321 322 321 321 321 320 319 318 317 316 316 315 315 315 314 314 313 311 309 307 304 301 298
314 316 317 319 320 319 318 318 319 315 316 323 320 317 321 320 318 315 315 319 314 310 310 307 306 305 304 304 303 302 302 301 300 300 299 299 300 300 299 300 301 301 302 303 304 304 305 306 307 308 310 311 312 312 313 314 314 316 316 316 317 316 316 316 316 316 317 317 317 317 317 317 317 317 318 318 319 319 319 319 318 317 316 315 315 314 314 314 313 313 311 309 307 305 303 301 298
316 318 318 320 321 320 322 321 320 317 316 325 325 318 319 320 315 312 313 313 309 308 308 307 306 305 304 303 302 302 301 300 300 299 298 299 299 299 299 299 299 299 300 302 303 303 304 305 305 306 307 308 308 309 309 310 310 312 312 312 312 312 311 311 312 312 312 312 312 313 313 314 314 314 314 314 315 315 316 316 316 315 314 313 313 313 313 312 312 311 310 308 306 303 301 300 298
320 320 320 322 321 320 325 325 323 320 316 320 322 318 320 321 314 310 309 308 307 306 306 305 305 304 303 303 302 301 300 300 299 298 298 297 297 298 298 298 298 299 299 300 301 302 302 303 304 305 305 306 306 306 307 307 308 308 309 308 308 308 307 307 308 308 308 308 308 308 308 308 309 309 310 310 311 311 312 313 312 312 312 311 311 310 311 311 310 310 309 308 305 302 300 299 298
325 324 322 322 322 321 323 323 322 322 321 320 317 321 329 327 316 312 309 307 307 306 305 305 304 303 302 301 301 300 300 299 298 298 297 296 296 296 297 297 297 298 298 298 299 299 301 302 303 304 304 304 305 305 305 306 306 306 306 306 306 306 305 305 305 305 306 306 306 307 306 305 304 304 305 305 306 307 308 309 309 309 309 308 308 307 308 308 309 309 308 307 304 302 301 300 299
327 328 325 322 323 323 322 321 321 323 327 322 316 323 335 334 323 315 310 309 308 306 305 305 304 303 302 301 301 300 299 298 297 296 296 295 295 295 295 296 296 297 297 297 297 298 299 300 301 302 302 303 303 304 304 304 304 304 304 304 303 303 302 301 301 302 303 304 305 306 306 305 304 303 303 302 302 303 303 304 305 306 306 306 306 305 305 305 305 306 306 305 304 303 301 299 298
324 327 326 324 322 321 322 320 320 326 327 320 317 323 328 329 326 317 310 310 308 306 305 304 303 302 302 301 300 299 299 298 297 295 294 294 294 294 294 295 295 295 296 296 297 297 298 298 299 300 300 301 301 302 302 303 303 302 302 301 301 300 299 299 300 301 301 303 304 304 304 305 305 304 303 302 302 301 301 301 302 302 303 304 304 304 304 303 303 303 303 303 302 302 300 297 297
328 324 325 328 324 322 323 320 320 324 323 320 322 322 320 322 322 315 311 311 309 306 305 304 303 302 301 301 300 299 299 298 297 296 294 293 293 293 293 293 294 294 295 295 296 296 297 297 297 298 298 299 299 300 301 301 301 301 301 300 300 299 299 299 299 300 301 301 302 302 302 303 303 303 303 303 303 302 302 301 301 300 301 301 302 302 303 303 302 302 301 301 300 300 299 297 297
328 321 321 325 324 323 323 320 321 321 318 322 324 318 317 324 322 312 311 314 311 307 305 303 303 302 301 300 300 299 298 297 296 295 294 292 292 292 292 292 293 293 294 294 294 295 295 295 296 297 297 297 298 298 299 299 299 299 299 299 299 299 299 299 299 299 300 300 300 300 300 300 301 301 301 302 302 301 301 301 301 300 300 300 300 300 300 301 301 301 301 300 299 299 298 298 297
321 319 322 326 325 324 322 319 322 322 318 321 323 318 317 325 325 314 311 316 314 308 305 303 303 302 301 301 300 298 298 297 295 293 292 292 291 291 291 292 292 292 292 293 293 293 294 294 295 295 295 295 296 297 298 298 298 298 298 298 298 298 298 298 299 298 298 299 298 298 298 298 299 299 299 300 300 300 300 300 300 300 300 299 299 299 299 299 299 299 299 300 299 298 298 297 296
317 320 326 329 328 327 326 323 322 322 322 323 322 320 316 322 328 321 314 315 313 307 304 303 302 302 301 300 299 298 297 296 295 293 291 291 291 291 291 291 291 291 292 292 292 292 292 292 292 293 292 293 294 295 296 296 296 296 296 296 296 296 296 297 297 296 296 297 296 296 297 297 297 298 298 298 298 298 298 298 299 299 299 299 299 299 299 298 298 298 298 298 298 298 298 297 296
319 325 326 327 328 327 327 326 322 321 326 327 323 318 315 320 326 320 312 310 308 307 305 303 302 302 301 299 298 297 296 296 295 294 292 291 291 291 290 290 290 290 290 291 291 291 291 291 291 291 290 290 291 292 292 292 292 292 292 293 292 292 292 292 291 291 291 292 292 293 294 294 295 296 296 296 296 296 297 297 297 298 298 298 298 298 298 298 297 297 297 297 297 297 297 297 296
320 324 322 323 325 323 322 324 321 322 324 321 318 316 317 321 320 313 309 306 306 306 304 302 302 301 300 299 298 297 296 295 295 294 293 291 290 291 290 290 290 289 289 289 289 290 289 289 289 289 288 288 288 289 289 289 289 289 289 289 289 288 288 288 288 287 287 288 288 288 289 289 289 290 291 292 293 294 295 295 296 296 297 297 297 298 298 298 297 297 296 296 296 296 296 297 296
318 321 322 323 324 323 326 324 317 318 321 317 314 316 319 322 316 308 305 303 303 304 303 301 301 300 299 299 298 297 296 295 294 294 293 290 290 291 290 290 290 289 289 288 288 288 288 288 288 288 287 287 287 287 287 287 287 287 287 287 287 287 287 286 286 286 286 286 286 286 286 286 286 286 287 287 288 289 291 292 293 294 295 296 296 297 297 297 296 296 296 296 296 296 296 296 296
316 320 322 322 326 326 327 326 319 320 324 318 313 316 324 325 313 303 302 301 300 302 301 300 300 299 299 298 297 297 295 295 294 294 293 290 290 291 291 291 291 290 289 288 288 288 287 288 287 287 287 287 287 286 286 286 286 286 286 286 286 286 286 286 286 286 286 287 286 286 286 286 286 286 286 286 286 287 287 288 289 289 290 292 293 294 295 295 295 295 295 295 295 295 295 295 295
316 317 318 320 324 323 321 323 322 321 323 320 318 320 320 315 306 301 302 301 300 301 300 299 300 298 298 298 297 296 296 295 295 295 293 290 290 291 291 291 291 290 289 288 288 288 287 287 287 287 287 287 287 287 287 287 287 287 287 287 287 287 287 287 287 287 287 287 287 287 287 287 287 287 287 287 287 287 287 287 287 287 287 288 288 289 290 292 293 294 294 294 294 294 294 294 294
316 315 320 321 319 320 322 322 318 316 320 320 321 320 313 308 307 302 301 302 300 300 299 299 299 299 298 298 298 297 296 295 295 295 292 290 290 291 291 292 291 290 289 288 288 287 287 287 287 287 287 287 287 287 287 287 287 287 287 287 287 287 287 287 287 287 287 287 287 287 287 287 287 287 287 287 287 287 287 287 287 287 287 287 287 287 287 287 288 290 291 292 293 293 293 293 294
319 319 322 318 315 319 324 324 321 319 320 320 320 320 315 314 313 304 301 304 302 300 300 300 299 300 299 299 298 297 296 295 295 294 291 290 290 290 291 292 291 290 289 288 288 287 287 287 287 287 288 287 288 288 288 288 288 288 288 288 287 287 287 287 287 287 287 287 287 287 287 287 287 287 287 287 287 287 287 287 287 287 287 287 287 287 287 287 286 286 287 288 290 291 292 293 293
318 321 319 316 318 323 322 320 322 322 319 321 323 320 317 317 314 308 305 305 302 301 301 300 300 300 299 299 299 298 297 296 295 295 292 290 290 290 291 291 291 290 288 288 288 288 288 288 288 288 288 288 288 288 288 288 288 288 288 288 288 288 288 288 288 288 288 288 287 287 287 287 287 287 287 287 287 287 287 286 286 286 286 287 287 287 287 287 287 287 287 286 286 287 289 290 291
313 315 315 316 319 322 321 318 321 322 317 319 321 318 320 321 317 313 309 304 301 302 301 301 300 299 299 299 298 298 298 297 296 296 293 291 290 290 290 291 291 290 289 289 289 289 289 288 288 288 288 288 288 288 288 288 288 288 288 288 288 288 288 288 288 287 288 288 287 287 287 287 287 287 287 286 286 286 286 286 286 286 286 286 286 286 286 286 287 287 287 287 287 286 286 286 287
316 317 317 317 316 318 320 316 317 322 320 321 320 316 321 323 314 313 311 303 301 301 300 301 300 300 300 299 298 298 298 297 297 296 294 291 290 291 290 290 290 290 290 289 289 289 289 289 289 288 288 288 288 288 288 288 288 288 288 288 288 288 287 287 287 287 287 287 287 287 287 287 287 287 286 286 286 286 286 285 285 285 285 285 285 285 285 285 285 286 286 286 287 287 286 286 286
321 323 320 320 319 318 319 316 316 318 318 322 321 317 321 318 309 309 308 303 301 301 301 302 301 301 301 300 298 298 297 298 297 296 293 291 291 291 291 290 290 290 290 290 290 289 289 289 289 289 289 288 288 288 288 288 288 288 288 288 288 288 287 287 287 287 287 287 287 286 286 286 286 286 286 286 286 285 285 285 285 285 285 285 285 285 285 285 285 285 285 285 286 286 286 286 286
Wind_Speed
9 7 6 6 8 6 4 5 2 2 4 2 2 0 2 3 0 1 1 2 1 3 4 2 1 2 1 2 4 5 5 5 5 4 3 5 2 11 17 20 12 12 20 23 28 30 30 30 28 27 25 24 23 22 21 21 19 17 16 16 18 18 17 16 16 15 14 14 12 12 11 11 10 10 9 9 9 9 8 8 8 8 8 9 9 9 8 8 8 9 9 8 8 7 7 7 8
7 6 5 5 6 4 1 3 4 3 5 3 2 1 2 3 2 3 5 4 4 5 3 2 1 1 1 2 2 2 3 5 5 3 3 2 3 12 18 19 15 13 19 22 27 30 30 30 29 28 26 25 24 23 22 22 20 18 16 17 19 18 17 17 16 15 14 13 12 12 12 11 10 10 9 9 9 9 9 8 8 8 8 9 10 10 8 7 6 7 8 8 7 6 5 4 4
8 6 6 4 3 4 1 4 4 2 4 2 3 3 1 2 2 6 8 7 8 5 1 1 1 1 3 4 1 3 3 4 3 2 2 4 4 10 20 18 14 14 17 21 26 29 31 30 29 28 26 26 25 24 24 22 21 19 17 17 19 18 17 16 16 15 14 13 13 12 11 11 10 10 10 10 10 9 9 9 9 9 9 10 10 9 7 7 5 4 5 5 5 4 5 4 4
8 7 9 5 3 4 4 4 2 4 3 2 1 4 2 3 6 6 8 7 6 2 2 1 1 1 3 1 2 1 3 3 3 4 1 7 6 10 20 17 13 15 17 20 24 28 30 30 29 28 26 26 25 24 24 23 22 21 19 18 19 18 17 16 15 15 14 13 12 12 11 11 10 11 11 11 11 10 10 10 10 10 10 10 9 8 6 5 4 3 3 3 4 4 4 5 5
7 6 7 5 3 2 3 3 2 4 2 4 2 4 5 6 6 7 6 6 4 1 2 2 1 2 1 2 2 1 4 2 3 6 4 9 8 12 19 15 15 17 18 20 22 27 29 31 29 28 27 25 24 24 25 24 22 21 20 20 19 19 18 16 15 14 14 13 12 12 11 11 11 11 12 12 12 11 11 11 11 10 10 10 9 7 5 4 3 2 1 2 5 5 5 5 6
6 5 5 5 3 1 3 2 1 1 4 5 3 6 7 6 6 6 4 4 2 2 2 2 0 1 1 3 2 3 4 1 1 6 7 10 9 14 18 14 16 17 19 20 21 25 28 31 29 28 27 25 24 24 25 24 23 22 21 20 20 20 18 17 16 15 14 14 13 12 12 11 11 12 13 13 13 12 12 12 11 11 10 9 7 5 4 4 2 0 2 4 5 6 7 7 7
7 4 3 5 2 2 4 2 2 3 4 5 5 6 7 7 6 2 4 3 2 3 1 1 1 2 2 3 1 3 3 2 2 5 7 10 11 15 17 15 16 18 19 19 21 24 27 30 30 29 28 25 24 24 25 24 23 22 21 21 21 21 20 18 16 16 15 14 13 12 12 12 12 12 13 13 14 14 13 13 13 13 11 10 8 6 4 2 1 1 3 5 6 6 6 8 9
6 3 1 4 2 3 4 1 3 3 3 3 4 6 7 8 5 2 2 0 1 2 1 3 0 2 4 3 1 4 1 4 5 6 9 10 12 16 17 16 17 18 19 19 20 22 25 29 30 29 28 26 25 24 25 24 22 21 21 21 21 21 21 19 17 17 16 15 14 13 13 13 13 13 14 14 14 13 10 12 13 13 12 11 9 6 4 3 3 3 2 4 6 6 5 6 7
4 3 2 3 2 3 2 2 3 3 4 5 3 4 5 5 3 4 1 2 1 1 3 5 0 1 5 5 3 4 1 4 6 7 9 10 12 15 18 17 17 18 19 19 18 20 24 28 30 29 29 28 26 25 24 24 23 21 21 21 21 20 20 20 18 18 17 16 15 15 14 14 14 14 16 15 14 12 9 9 11 11 10 10 7 6 7 7 6 5 4 4 5 5 6 5 5
4 4 2 3 3 3 4 3 2 2 5 5 3 5 5 2 2 3 2 2 1 0 4 4 0 2 3 4 5 3 1 4 7 8 10 11 12 16 18 17 17 17 18 19 18 19 22 26 29 30 30 28 27 26 25 24 24 23 22 22 21 20 20 20 20 19 18 17 17 16 15 15 15 16 17 16 14 12 11 10 10 10 9 9 9 8 8 7 7 6 5 5 5 5 6 4 3
3 4 3 4 4 2 2 3 4 4 6 5 4 6 6 2 3 2 1 2 2 1 2 1 0 3 1 3 5 2 2 6 8 8 9 11 12 16 18 18 18 17 17 18 18 18 20 24 28 30 30 29 28 27 26 25 26 25 23 23 22 21 21 21 20 20 19 19 18 17 17 16 16 17 17 16 15 14 13 11 10 10 10 11 10 9 8 7 7 6 7 7 5 5 4 2 2
3 4 4 4 2 1 2 3 6 5 7 4 3 5 2 1 3 1 2 1 2 3 3 3 1 2 1 3 5 4 3 9 10 7 8 11 11 14 17 19 19 19 18 17 18 19 19 22 27 29 30 29 29 28 28 27 27 26 25 24 24 22 21 21 21 20 20 19 19 19 18 17 17 18 17 17 16 14 13 11 10 9 9 10 10 10 11 10 9 8 9 8 5 4 2 2 3
3 1 5 2 3 3 2 3 5 4 6 3 3 5 2 3 1 4 3 1 2 4 4 6 3 2 1 4 4 5 4 10 11 8 10 11 10 12 18 21 19 19 20 19 19 20 20 22 25 28 30 30 30 29 29 28 28 28 26 25 25 23 22 21 21 21 21 20 20 19 18 17 17 18 18 18 17 15 14 12 10 10 9 9 10 10 12 12 11 11 10 7 4 3 3 3 4
2 3 4 0 1 1 2 2 4 2 2 4 3 4 2 0 4 5 3 2 5 2 3 6 5 2 3 3 5 5 4 9 11 10 11 10 11 12 17 21 19 20 20 21 21 21 22 23 24 27 29 31 31 30 29 29 29 29 28 27 25 24 23 22 21 21 21 21 20 19 19 18 18 19 19 18 17 16 15 12 11 10 10 10 10 11 12 13 13 13 10 6 4 3 4 4 4
3 2 4 2 2 3 2 2 1 3 2 5 3 3 3 3 2 1 2 2 6 5 1 1 4 2 3 1 4 6 4 7 12 12 11 11 11 13 17 19 19 20 21 22 22 22 23 24 25 26 29 31 32 31 30 30 30 29 29 28 27 25 24 22 22 21 21 21 21 20 19 19 19 20 19 18 17 16 14 13 11 11 10 10 10 10 12 12 13 12 9 6 4 4 5 5 5
3 3 5 2 1 2 2 3 2 3 3 5 3 3 3 6 0 1 4 4 4 4 1 2 3 2 4 5 7 7 6 5 12 12 12 11 12 13 16 18 18 19 21 22 23 24 24 24 26 27 29 30 32 32 31 31 31 30 29 29 28 26 25 23 23 22 21 21 22 21 20 20 20 20 19 18 17 16 15 13 12 12 11 11 10 10 11 12 12 11 8 6 5 5 5 5 5
3 4 4 1 1 2 3 4 2 1 5 6 6 3 0 7 3 1 2 3 3 5 2 5 3 2 6 6 7 8 6 7 13 13 12 12 13 14 15 18 19 19 21 23 24 25 25 25 27 28 29 30 32 32 33 32 32 31 30 29 29 28 26 24 24 23 22 22 22 22 21 21 21 21 20 19 18 17 16 15 13 13 12 12 11 11 12 12 13 12 8 7 6 6 6 6 7
4 3 3 1 3 3 5 6 4 2 4 6 6 2 3 5 6 3 2 1 4 6 6 6 5 6 9 10 10 9 5 8 13 14 13 12 13 14 16 18 20 22 23 24 25 26 26 27 27 29 30 31 31 32 33 33 32 32 31 30 29 29 27 26 26 25 24 23 24 23 23 23 22 22 21 20 19 18 17 16 15 14 13 13 12 12 13 13 14 12 10 8 6 7 7 7 8
3 3 2 3 5 5 5 6 4 2 4 6 6 3 3 4 4 2 3 6 5 7 9 7 8 10 11 13 12 9 7 11 14 16 15 15 16 17 18 18 21 23 25 26 27 27 27 28 28 29 30 31 32 33 33 33 33 32 32 31 30 29 29 28 27 27 26 26 26 25 25 25 24 23 22 21 20 19 18 17 16 15 14 13 13 14 14 14 14 13 11 9 8 8 8 8 8
2 4 2 6 7 5 5 6 6 5 5 5 7 3 3 5 3 1 4 8 6 5 9 7 10 12 9 9 8 6 9 12 14 16 16 18 19 20 20 20 23 25 27 27 28 28 29 29 29 30 31 31 32 33 33 33 33 32 33 32 31 30 29 29 29 28 28 28 28 27 26 26 25 24 23 22 21 20 19 18 17 16 15 14 14 15 15 15 15 14 12 11 10 10 9 9 10
1 4 5 7 4 3 7 7 6 6 3 3 7 5 6 6 2 1 4 8 9 7 8 8 11 15 10 7 6 7 9 11 13 15 16 18 20 22 23 24 26 27 26 25 27 29 30 30 30 31 31 31 32 33 34 33 32 32 33 33 33 31 30 30 30 29 29 28 28 27 27 26 26 25 24 23 22 21 20 19 18 17 16 16 15 16 17 17 17 16 14 12 11 11 10 10 11
1 3 6 6 4 3 8 6 4 4 3 5 7 6 6 3 1 1 2 6 10 7 7 9 11 13 12 8 6 6 8 10 12 14 17 19 22 24 26 28 28 27 25 26 27 27 29 31 31 32 32 32 32 33 34 33 32 32 33 34 34 32 31 30 30 30 30 29 28 27 27 26 26 26 25 24 23 23 22 21 20 19 18 17 17 18 19 20 19 19 16 13 13 12 12 11 12
2 4 4 5 5 5 6 3 3 3 3 6 5 4 3 4 5 4 6 10 12 10 9 8 9 13 15 9 5 6 7 8 10 16 20 21 24 26 28 29 30 29 28 28 27 26 27 29 31 32 32 32 32 32 33 33 33 32 33 34 35 34 32 31 31 31 30 29 28 28 27 27 27 26 26 25 25 24 23 23 21 21 20 19 19 19 21 22 21 20 17 14 14 14 13 13 13
4 5 5 5 5 6 6 4 6 5 6 8 4 4 5 6 6 1 7 13 13 14 10 7 10 14 15 10 6 7 8 8 12 18 21 22 26 28 28 28 29 28 27 29 28 26 26 27 29 32 33 33 32 32 32 33 33 33 32 34 35 35 33 33 33 32 31 29 28 28 27 27 27 26 26 26 25 25 24 23 22 22 22 21 20 21 23 23 23 21 18 15 16 16 15 14 14
4 5 5 4 3 5 7 6 8 9 8 6 4 8 9 8 4 2 11 17 15 13 9 6 6 9 10 9 9 7 6 7 10 12 13 15 18 22 25 26 25 23 25 29 29 27 25 25 26 30 32 33 33 32 32 32 32 32 32 33 35 35 35 34 33 33 32 30 29 29 28 27 27 26 27 26 26 25 25 24 23 23 22 22 21 22 24 25 25 23 20 17 16 16 16 15 15
4 5 3 3 5 6 7 7 9 9 5 2 3 12 12 6 3 4 12 16 14 9 7 7 5 7 8 7 8 8 8 9 12 13 14 17 16 16 18 19 20 20 24 25 25 25 24 23 25 27 29 31 32 32 32 32 31 31 32 33 34 34 35 34 34 33 32 32 31 31 30 29 28 28 28 27 26 26 25 24 24 24 23 23 22 23 25 26 25 24 22 19 17 17 17 16 16
4 3 4 5 6 7 5 7 11 8 5 4 5 13 12 4 1 4 10 12 9 7 7 8 6 7 7 6 7 9 10 11 14 16 19 23 23 22 19 15 13 16 20 20 20 23 22 22 23 24 26 28 30 31 31 31 31 31 31 31 32 33 33 33 33 33 33 32 32 31 31 31 31 30 30 29 28 27 26 25 25 24 24 23 23 23 25 26 26 25 23 21 19 18 17 17 17
2 1 7 8 6 8 7 9 10 4 5 5 8 8 9 2 2 7 12 10 6 7 9 8 7 7 7 7 8 9 9 13 18 20 19 20 20 21 22 20 15 9 12 15 16 18 19 20 20 21 23 26 28 29 29 30 30 30 30 30 30 31 31 31 32 32 32 31 30 30 29 30 30 30 30 29 28 28 27 26 26 25 25 24 24 24 24 26 26 25 23 21 19 18 18 19 18
2 3 5 10 7 8 11 9 5 2 3 4 8 2 8 2 6 11 13 8 6 8 10 7 6 6 7 8 8 8 10 16 20 21 18 18 20 21 22 23 19 11 4 5 7 10 13 14 16 18 21 23 25 26 27 28 28 28 28 28 28 28 29 29 29 30 30 29 29 28 28 28 28 29 29 29 28 28 28 27 27 27 26 25 24 24 24 25 26 25 24 22 20 19 20 21 20
4 2 1 6 6 6 10 4 0 1 2 5 7 1 6 7 10 12 11 7 7 9 9 6 7 7 7 7 7 8 11 15 17 18 20 21 22 23 25 26 24 19 13 7 4 3 4 6 9 13 17 20 22 23 25 25 25 24 24 24 25 26 26 27 27 27 27 27 27 27 27 27 27 27 28 28 28 28 28 27 28 27 26 25 24 24 24 25 26 26 25 24 22 20 21 22 22
2 2 0 2 2 5 9 4 1 4 2 5 6 2 6 9 11 12 9 4 4 8 8 6 7 6 7 7 7 8 10 13 16 19 22 23 24 25 27 28 28 25 22 19 14 9 4 1 4 9 13 17 19 20 22 22 21 20 20 19 20 21 22 24 24 25 25 25 25 25 25 25 26 26 26 27 27 27 28 28 28 27 26 25 24 24 24 25 26 26 25 24 23 21 21 23 23
1 1 3 2 3 5 11 8 3 2 3 3 5 2 5 8 11 13 9 4 3 7 9 7 7 7 7 6 7 7 7 12 18 21 23 24 25 26 27 29 30 29 28 26 23 19 15 11 5 2 6 11 14 15 16 16 16 16 16 15 15 16 17 19 20 21 22 22 23 23 23 24 24 25 25 25 26 27 27 27 27 27 26 25 25 24 25 25 26 26 26 25 24 23 23 24 24
2 1 4 3 3 2 7 7 1 3 1 3 2 2 4 6 9 11 9 7 7 7 9 7 8 7 7 6 6 6 7 10 15 21 24 24 24 26 27 28 29 30 30 29 27 26 24 21 16 11 7 2 4 7 9 9 9 10 10 10 10 11 12 14 15 16 17 18 19 20 21 22 23 24 24 25 26 26 27 27 27 26 26 25 25 25 25 26 26 26 26 25 25 24 24 25 25
3 1 3 4 4 3 3 5 4 3 3 1 2 3 6 9 9 12 11 9 8 8 7 6 8 7 7 6 7 7 8 9 11 17 22 23 24 25 27 28 29 31 31 31 30 29 27 25 23 21 17 12 8 4 3 3 4 5 5 5 5 5 7 9 10 11 13 14 15 17 19 21 22 22 23 24 25 25 26 26 26 26 26 25 25 25 25 26 25 26 26 25 25 25 26 26 26
4 3 3 4 3 4 5 4 4 5 5 4 4 4 8 11 9 11 10 5 6 7 4 7 7 7 7 7 7 7 8 9 10 16 20 22 24 26 27 29 30 32 32 31 31 30 29 27 25 24 21 19 16 13 11 9 8 7 6 6 5 4 2 3 3 5 6 8 10 12 15 17 19 20 21 22 23 24 24 24 25 25 25 25 25 26 26 26 26 26 26 26 26 26 26 26 26
6 5 4 4 5 6 6 5 5 2 4 6 6 5 8 9 10 10 6 1 2 3 6 7 6 7 7 7 7 7 9 8 10 16 20 22 24 25 27 29 30 32 32 32 32 31 30 29 27 26 24 21 18 16 14 13 12 11 11 10 10 9 7 5 3 1 1 2 4 6 9 12 14 16 18 20 21 22 23 23 24 25 25 25 25 26 27 27 27 27 27 27 26 26 26 25 24
2 2 2 5 6 6 6 5 6 0 1 7 4 3 6 8 11 11 6 5 5 5 9 7 6 7 6 7 7 8 8 7 10 17 21 23 25 26 27 29 31 32 33 32 33 32 31 30 29 28 26 23 21 20 17 15 14 12 12 12 12 11 9 8 7 6 5 4 3 3 4 6 8 11 14 16 18 20 21 22 23 24 24 25 26 27 27 28 28 28 27 26 26 26 26 25 24
2 4 4 6 5 7 7 5 6 1 2 5 2 3 7 9 10 10 6 8 8 6 8 7 7 7 6 7 7 7 6 6 10 15 20 23 25 26 28 30 31 31 31 32 32 31 30 30 29 28 26 25 24 22 20 19 17 15 14 13 12 12 11 11 10 9 8 8 7 7 7 6 6 7 9 12 15 17 19 20 21 22 24 24 25 26 27 27 27 28 27 26 25 26 26 26 25
4 3 2 5 4 4 7 5 4 3 1 4 4 4 7 10 6 7 8 7 6 6 8 7 6 7 6 6 6 6 6 7 8 11 16 21 22 25 27 29 30 30 30 31 31 30 30 29 29 27 26 25 24 21 20 20 18 16 16 15 14 15 15 13 11 10 10 10 10 10 10 9 9 9 8 9 12 15 17 19 20 21 22 23 24 25 26 27 27 28 27 27 26 25 25 25 25
4 4 3 5 4 1 4 5 4 3 1 3 3 4 6 7 1 8 7 6 8 9 10 9 7 7 7 6 6 6 7 7 8 9 12 17 21 25 27 28 29 30 31 31 30 30 30 29 28 26 25 24 23 21 19 18 16 15 16 16 15 15 15 13 11 11 10 11 12 12 13 12 12 11 10 10 11 12 15 16 18 19 20 21 22 24 25 26 27 28 28 29 27 24 24 25 25
4 6 6 6 5 5 6 3 4 4 4 2 3 5 5 5 1 5 5 5 8 8 9 9 7 7 7 7 7 7 7 6 7 8 9 14 19 22 25 27 28 30 30 29 28 29 28 28 27 25 24 23 22 20 18 16 16 15 15 15 15 16 17 17 17 16 14 12 12 12 13 13 13 13 12 11 11 11 12 14 15 16 17 18 20 21 23 25 26 27 28 29 29 27 27 27 26
4 5 9 10 8 7 5 2 4 4 4 3 4 4 5 5 1 4 4 5 7 6 7 7 6 6 6 7 7 6 6 6 6 7 9 12 17 20 24 26 27 28 27 27 27 28 29 28 27 26 25 23 22 20 18 18 19 19 20 20 21 21 22 22 22 21 18 15 12 10 10 10 11 12 12 12 12 12 12 12 13 14 15 16 17 18 20 22 24 26 27 28 29 30 29 26 25
3 5 7 8 6 4 4 1 2 1 4 3 4 1 5 6 3 4 5 5 6 5 6 6 5 5 5 5 5 4 5 5 6 7 9 12 15 18 21 23 25 25 24 25 27 29 30 30 29 28 27 25 23 21 20 20 22 23 24 25 25 24 23 22 21 21 19 16 13 11 9 8 8 9 10 11 11 12 12 12 12 13 14 15 16 17 18 19 20 23 25 27 28 29 29 26 26
3 4 4 5 5 4 4 4 2 3 2 5 2 2 4 6 4 4 7 7 5 4 5 5 4 4 5 4 4 4 5 5 5 6 8 11 14 17 19 21 22 23 23 26 27 29 29 30 30 30 29 28 26 24 23 23 23 23 23 24 25 24 23 22 20 19 18 16 15 15 13 10 9 8 8 8 9 10 11 11 12 13 13 14 15 16 17 18 18 19 21 24 25 26 28 27 28
6 5 5 6 6 6 4 5 2 1 2 5 3 2 2 6 4 2 6 5 4 4 4 4 3 3 4 4 4 5 4 5 5 5 7 10 14 16 18 20 22 23 25 26 27 27 28 29 30 30 30 29 28 26 26 26 25 24 23 24 25 24 22 20 19 18 18 17 17 17 16 15 13 11 10 9 9 10 11 12 12 13 13 14 15 15 16 17 17 18 19 21 23 25 26 28 29
4 4 5 5 5 4 4 5 3 2 2 5 6 5 3 5 4 2 3 3 4 5 4 4 3 3 3 3 4 4 4 5 5 6 9 11 14 15 18 21 23 23 24 25 26 27 28 29 30 31 30 29 28 28 28 28 27 26 26 26 26 25 23 22 21 21 21 19 19 19 18 17 16 14 12 11 10 11 11 12 12 12 13 14 14 15 16 16 17 18 18 19 21 23 25 26 28
4 5 6 6 5 5 4 2 4 2 4 7 8 10 7 4 5 4 4 3 5 8 5 5 4 3 3 3 4 4 4 4 4 6 9 12 14 16 19 22 23 23 24 26 27 27 28 28 29 30 29 29 29 29 29 29 28 28 29 29 29 28 27 27 27 27 26 24 24 23 21 20 18 17 15 14 13 13 12 12 11 11 11 12 13 14 15 16 17 18 18 19 19 20 22 24 26
5 5 4 3 4 4 4 4 4 1 6 7 5 7 6 4 5 3 3 4 3 10 10 10 8 6 4 4 3 3 3 3 4 4 6 10 12 16 19 21 22 23 25 26 26 27 27 27 28 29 30 29 29 29 29 29 29 30 30 30 31 30 30 30 30 29 28 28 28 27 26 25 24 22 21 21 20 18 16 14 12 11 11 11 12 13 13 14 16 17 18 19 19 19 20 21 23
5 4 5 3 3 3 2 3 0 3 7 5 2 5 3 5 5 2 3 6 2 5 9 11 10 8 5 4 4 3 3 3 4 4 4 7 10 13 17 19 21 23 24 24 25 26 27 27 28 29 29 28 28 29 29 29 29 30 29 30 30 30 30 30 30 29 29 29 29 29 29 28 28 27 26 26 25 24 22 20 17 14 13 12 12 13 13 14 15 16 17 18 19 19 20 21 22
4 5 5 4 2 1 3 4 2 4 5 3 2 4 2 4 2 2 3 5 3 5 8 7 8 8 6 5 4 3 3 3 3 4 4 6 9 12 14 17 19 20 21 22 24 25 26 26 27 28 27 26 27 28 28 29 29 28 28 29 29 28 29 29 29 28 28 28 28 29 29 29 29 28 27 27 26 25 24 23 22 19 17 15 13 13 14 15 15 16 17 17 18 18 19 21 22
4 5 5 5 4 4 4 4 3 4 4 3 2 2 2 3 1 3 2 4 3 5 6 5 6 5 4 4 4 3 3 3 3 4 4 7 9 11 12 15 16 17 19 21 22 23 24 25 25 25 25 24 25 26 27 27 28 27 28 28 28 28 27 27 27 26 26 26 26 26 27 27 27 26 26 25 25 25 24 24 23 22 21 20 18 17 16 16 16 17 17 18 18 18 18 20 21
2 3 5 2 4 5 3 3 5 3 3 3 2 3 3 3 1 2 3 4 5 5 5 6 5 4 4 4 4 4 3 3 3 3 4 6 8 10 11 13 14 15 17 18 20 21 22 22 22 22 22 22 22 23 24 25 25 26 26 26 26 26 26 26 25 25 25 25 26 26 26 26 25 25 25 25 25 25 25 24 24 23 23 22 22 22 21 20 19 18 18 18 18 18 18 19 20
1 3 3 4 4 5 2 3 0 2 2 4 2 2 2 1 0 1 4 4 3 3 4 6 5 5 5 4 4 4 3 3 3 3 4 6 8 10 11 12 13 13 15 16 17 18 19 19 19 19 19 19 20 20 21 21 22 23 24 24 24 24 25 24 24 24 25 25 26 26 26 26 26 26 26 26 25 25 24 24 24 23 23 23 23 22 23 22 22 22 21 20 20 19 18 19 20
5 2 5 3 1 4 3 1 2 2 3 4 1 3 3 1 2 0 2 3 5 5 4 5 5 5 5 5 4 4 4 4 3 4 5 6 8 9 10 11 11 12 12 13 14 14 15 16 17 17 17 17 17 18 18 19 20 21 21 22 23 23 23 23 23 24 24 25 26 27 27 27 27 27 28 28 27 27 26 25 25 24 24 23 23 23 23 23 23 23 23 23 22 21 20 20 20
4 4 3 3 1 1 1 2 2 2 4 4 4 5 3 4 4 4 6 10 9 7 6 6 7 7 6 6 5 5 5 4 4 4 4 5 7 9 10 10 9 10 10 10 11 11 13 14 15 15 15 15 16 16 17 18 18 19 19 19 20 20 21 22 23 23 25 26 26 27 27 27 27 28 28 29 29 29 29 28 28 27 26 25 24 23 23 23 23 23 23 24 24 23 24 24 22
2 0 1 1 3 4 2 2 3 3 4 4 5 6 4 5 5 8 12 13 12 11 9 8 9 8 7 6 6 6 5 5 5 4 4 6 8 8 9 10 9 9 8 7 8 9 10 11 11 12 13 13 14 15 16 16 16 17 17 17 17 18 19 20 21 22 24 25 26 26 27 27 28 28 28 29 30 30 30 30 30 30 30 29 28 26 25 23 23 23 23 24 24 24 25 25 25
1 1 2 1 1 1 1 1 2 3 3 3 4 5 5 4 3 7 11 11 12 13 11 9 8 8 8 7 7 6 6 6 5 5 5 7 9 7 7 8 7 7 7 6 6 6 7 7 8 9 9 10 11 12 12 13 13 13 14 15 15 15 17 18 19 21 22 24 25 25 26 27 28 28 29 29 30 30 30 30 31 31 31 31 31 30 29 27 25 25 24 24 25 25 25 25 25
4 3 3 3 2 1 2 4 1 2 3 4 4 5 6 4 2 4 6 8 11 12 11 9 9 9 8 7 7 7 6 6 6 5 6 9 9 8 7 7 7 7 7 7 6 6 5 4 4 4 4 5 5 6 7 7 8 9 9 11 13 13 14 17 18 20 22 24 25 25 25 26 27 28 28 29 30 31 31 31 31 32 32 32 32 32 32 31 30 29 28 27 26 26 26 27 26
Wind_Direction
324 334 340 333 335 345 14 62 54 331 71 60 301 40 252 264 13 117 295 281 308 262 230 224 153 131 131 177 205 202 182 175 173 135 207 248 180 179 184 191 190 175 183 185 187 187 185 183 182 183 183 183 182 181 182 180 182 184 182 180 168 163 167 167 166 164 162 160 161 156 151 153 153 154 154 159 162 163 158 151 148 149 151 151 148 137 136 138 127 117 109 104 102 98 95 95 92
335 342 358 338 342 7 305 69 85 337 46 59 292 177 253 331 33 172 209 210 211 240 224 216 272 307 77 124 177 144 230 221 183 176 241 241 159 182 184 194 203 185 182 183 186 187 186 185 185 185 184 184 183 183 183 181 184 186 183 179 169 168 172 172 170 168 166 165 164 158 157 158 159 162 161 164 164 164 163 160 156 155 157 156 150 140 133 136 133 127 126 125 122 125 128 124 115
354 350 5 356 2 44 41 42 86 48 68 94 287 256 291 14 219 215 217 216 223 226 132 176 291 261 73 35 147 135 261 268 184 207 295 179 175 188 185 194 204 192 184 183 186 189 188 187 187 187 186 185 184 184 184 182 186 188 185 179 172 172 177 177 174 173 172 171 168 164 164 165 168 169 166 166 165 163 165 165 161 157 155 153 150 145 136 127 128 134 138 146 149 156 168 181 191
3 355 359 17 37 29 55 46 117 108 110 169 269 270 264 191 215 236 235 239 245 217 100 137 336 215 121 348 240 158 260 284 210 189 191 188 185 184 187 195 198 190 187 187 189 191 191 189 189 189 187 187 186 185 184 183 187 190 186 182 178 177 180 181 180 179 178 177 173 172 174 173 176 175 171 168 165 163 164 166 161 156 152 151 149 148 143 134 135 133 131 167 192 197 199 209 219
359 0 359 34 73 33 81 77 105 101 169 186 163 270 252 207 210 232 258 278 271 213 155 125 334 276 152 226 194 168 237 274 244 206 197 190 180 179 189 198 192 188 190 190 191 194 194 191 191 191 190 189 188 186 186 186 189 192 188 185 182 181 183 184 186 185 182 181 178 180 181 179 183 181 173 168 167 166 163 163 158 155 154 151 149 145 140 137 139 143 149 209 219 221 224 229 235
1 19 20 45 87 117 87 67 21 271 226 172 167 253 240 222 211 212 293 313 280 235 189 127 229 305 311 254 189 194 219 124 221 208 194 180 174 180 192 200 190 190 191 191 195 196 197 194 192 192 192 190 190 189 189 190 191 194 192 189 184 183 186 187 189 189 185 183 183 187 187 187 190 184 176 171 168 168 163 159 157 156 157 153 152 152 144 131 119 140 283 273 245 231 238 244 246
2 13 22 51 44 52 85 118 207 253 244 176 176 227 224 231 219 168 351 342 343 315 279 235 177 82 287 289 280 240 221 214 205 187 180 173 170 177 192 199 192 192 191 193 196 199 199 196 194 193 193 192 192 193 193 193 194 196 195 192 186 184 186 187 191 191 187 186 186 190 195 194 195 188 178 173 171 173 168 166 168 166 165 165 163 162 154 141 148 268 286 282 259 235 243 254 252
5 10 27 80 29 22 84 134 227 219 253 232 201 212 217 219 200 108 11 317 327 296 333 284 36 84 287 351 279 255 230 221 211 174 171 170 171 175 189 195 193 193 193 194 195 199 200 198 196 195 195 194 194 195 195 195 197 199 198 195 190 188 187 186 190 191 187 189 190 193 201 199 197 191 177 174 180 183 179 178 178 176 176 177 177 181 194 211 224 229 242 266 260 244 264 269 252
23 36 54 75 54 20 33 318 285 237 264 284 276 246 241 214 163 100 115 319 329 248 276 254 172 38 294 346 275 271 347 200 178 164 166 171 175 175 188 194 195 195 194 195 194 198 200 201 199 197 198 198 197 197 196 197 200 201 200 198 195 192 189 188 190 189 187 191 194 197 204 203 200 193 182 182 189 193 194 189 187 190 190 193 207 229 244 242 229 229 237 253 257 258 285 282 250
34 33 80 68 68 27 350 304 296 283 272 284 280 260 264 233 106 82 125 315 353 27 281 233 140 303 292 313 277 302 324 201 167 168 170 170 176 179 189 195 200 199 196 197 196 197 199 202 202 200 201 200 200 199 198 198 201 203 203 201 199 197 193 193 192 191 191 192 196 199 204 204 203 197 188 189 193 196 200 200 200 206 208 218 235 248 256 248 231 233 236 235 244 269 292 281 231
38 355 80 78 56 36 312 274 290 288 283 302 289 257 256 223 101 67 66 346 354 28 285 143 27 258 304 295 267 298 251 214 190 184 179 173 177 184 191 194 200 204 202 201 199 197 197 202 204 204 203 203 202 202 200 200 202 204 205 204 203 202 198 196 195 195 196 196 198 199 204 204 203 199 192 192 196 200 205 211 215 217 221 233 242 243 237 221 212 215 219 221 240 281 288 244 193
72 338 60 90 106 191 216 258 284 285 297 316 286 272 280 68 69 349 330 345 337 349 269 190 170 188 69 290 262 307 261 213 203 198 196 187 183 186 192 194 198 206 208 207 204 201 198 200 204 206 206 206 205 205 203 202 204 205 206 206 205 205 202 200 199 200 200 200 202 203 206 206 202 198 195 197 201 206 211 217 224 231 235 242 247 238 226 216 214 214 217 225 248 285 249 198 173
103 139 81 97 180 175 212 251 281 315 329 307 238 285 15 50 313 236 210 224 293 341 274 211 158 118 226 264 281 320 279 220 206 208 215 198 186 187 192 194 195 202 209 211 210 207 201 200 203 207 209 209 208 208 207 205 205 207 207 207 207 207 206 205 203 204 204 203 206 207 208 208 203 198 198 202 207 214 219 222 228 238 246 253 254 239 230 226 225 226 225 228 252 263 203 181 168
126 147 103 86 255 131 207 258 310 33 331 282 257 297 349 283 237 213 179 295 276 252 242 203 146 107 259 291 318 307 264 223 210 214 217 198 190 190 192 195 197 201 207 213 216 213 206 203 203 206 209 210 211 210 210 208 207 209 210 208 208 209 209 209 208 208 208 207 208 209 210 208 205 203 204 208 213 220 223 226 230 239 251 261 257 239 231 227 228 229 222 221 240 223 191 181 173
130 122 91 98 348 351 227 241 330 119 215 270 273 310 341 286 211 253 238 228 265 233 203 219 139 162 227 218 267 265 277 223 209 211 206 197 196 193 192 196 203 205 208 213 218 218 213 209 206 206 208 210 211 211 211 210 209 212 213 211 211 212 211 210 211 212 210 210 210 210 211 209 207 206 209 213 216 221 225 230 236 246 258 265 256 238 229 225 229 228 210 209 220 196 190 185 179
112 105 70 66 304 330 237 221 101 99 257 251 279 340 339 299 217 311 250 171 273 271 156 216 187 217 195 189 246 277 319 233 203 204 200 197 198 198 198 199 205 209 211 214 217 220 217 214 210 209 209 209 211 212 212 211 211 213 214 214 213 214 213 211 212 215 214 212 211 211 211 211 210 209 213 217 220 224 230 235 242 251 261 264 251 235 228 223 229 228 204 200 202 184 190 188 187
65 78 72 39 218 216 215 208 158 130 269 265 310 347 212 295 303 274 263 138 265 281 280 244 231 228 198 208 265 307 319 220 200 198 194 195 197 202 206 204 207 210 212 214 217 220 219 217 215 213 212 211 212 213 214 213 213 214 215 216 215 216 215 213 213 215 214 211 211 211 211 212 211 211 215 220 224 229 236 240 245 251 258 260 249 231 225 225 232 231 212 200 190 182 189 189 193
55 81 111 200 198 204 194 192 193 169 262 273 309 303 176 290 303 306 322 315 293 302 293 275 285 271 248 254 277 303 285 211 200 195 190 192 197 205 210 209 210 212 212 214 218 219 220 219 218 217 215 213 213 213 214 215 215 215 216 217 217 218 216 214 214 214 213 210 209 210 211 212 212 214 217 221 226 231 237 241 245 250 253 255 249 232 223 226 234 231 213 199 186 186 193 192 197
94 117 140 222 201 214 202 196 208 182 242 268 292 259 210 275 278 328 315 288 313 318 293 290 295 280 272 274 278 284 244 208 203 196 193 195 200 207 212 213 213 216 216 216 219 220 220 220 219 219 218 216 215 214 215 216 216 215 216 218 218 218 218 215 214 214 212 210 209 210 211 212 213 216 220 224 228 232 237 241 244 248 250 253 247 233 224 226 231 228 211 198 189 193 198 198 204
165 125 162 239 215 233 248 234 236 224 230 276 290 271 267 267 241 320 318 298 297 277 277 288 291 285 279 273 273 259 219 208 206 202 203 206 211 215 217 217 217 223 224 222 223 222 222 222 221 221 221 219 217 216 215 216 217 217 216 217 218 218 218 217 215 214 213 211 210 211 212 211 214 218 222 227 230 232 234 237 240 243 245 247 242 232 225 224 226 225 211 196 192 198 202 205 209
183 141 188 233 197 221 261 251 247 244 230 283 291 309 303 276 215 293 333 317 297 264 251 246 265 280 286 275 258 233 212 214 213 211 216 219 224 226 228 230 232 237 235 230 227 226 226 225 224 224 223 221 219 218 216 216 217 218 217 217 217 218 217 217 216 215 214 214 213 213 213 213 215 219 223 226 229 232 233 234 235 238 240 240 236 230 225 223 222 223 217 197 193 201 203 208 212
169 216 214 225 167 205 261 251 255 286 327 311 298 299 289 294 39 232 249 281 277 271 248 236 248 268 281 283 258 228 216 224 223 221 226 229 234 235 238 239 240 242 238 234 232 232 231 229 228 226 225 222 222 221 219 219 218 217 217 217 217 217 217 217 216 215 214 215 216 216 215 216 219 221 224 227 229 231 232 233 234 236 237 236 233 229 225 224 223 224 222 202 196 202 203 209 212
222 274 259 246 216 229 270 279 297 317 310 284 276 281 304 336 308 233 222 246 256 266 257 247 259 271 283 292 265 239 233 230 227 229 230 233 237 241 244 245 245 243 238 238 238 235 232 233 232 228 226 225 224 224 223 222 220 218 217 217 217 216 216 215 215 216 216 217 219 219 219 220 222 224 226 228 230 231 232 234 235 237 238 237 234 231 227 226 225 226 222 204 199 204 205 211 212
211 266 288 274 240 235 264 293 294 285 260 255 265 317 315 292 291 251 248 260 262 268 267 258 265 278 292 300 278 259 255 248 247 248 248 248 250 253 255 253 253 248 241 244 243 238 234 234 233 230 228 228 228 226 225 225 223 221 217 216 216 216 216 215 216 217 217 220 222 223 224 225 226 227 229 230 231 232 234 235 236 238 239 238 236 233 229 226 226 226 221 206 203 207 207 212 213
202 233 276 293 273 253 271 281 274 271 264 261 295 299 275 255 274 293 265 270 271 273 285 284 277 291 298 301 298 302 307 302 299 296 294 291 284 280 276 269 265 253 244 248 246 241 240 235 231 231 230 230 230 228 227 227 226 224 220 218 217 216 217 216 217 218 219 221 223 226 228 230 232 232 233 233 233 234 235 236 237 239 240 239 236 234 230 228 226 226 223 214 210 211 211 215 216
215 214 249 280 286 280 283 281 273 275 265 215 291 286 278 267 265 265 258 258 268 291 311 304 318 310 298 305 319 351 7 2 358 358 5 7 2 338 314 296 281 263 253 255 251 247 246 238 231 232 232 231 230 228 228 228 228 227 225 223 221 220 220 220 220 221 223 224 225 227 230 232 234 237 238 237 236 236 237 237 238 240 241 240 239 236 232 230 229 228 226 221 217 217 218 219 219
227 244 286 279 284 286 270 267 276 290 281 216 228 270 281 294 234 267 264 251 269 322 310 302 327 309 309 341 2 30 36 25 16 20 21 17 18 9 0 348 311 278 265 264 257 253 250 243 237 234 233 232 229 229 229 230 230 230 229 228 226 226 226 225 225 226 227 228 230 232 233 234 235 238 239 239 238 238 238 238 239 240 242 242 241 239 235 232 231 232 232 228 225 224 226 226 225
247 319 318 300 313 306 276 266 272 291 289 211 175 253 292 337 191 243 256 258 300 327 296 305 334 321 347 28 42 45 38 28 26 31 24 12 10 7 9 11 357 317 277 268 263 262 257 249 243 238 234 231 229 230 231 231 231 231 231 230 230 230 231 231 230 230 231 233 236 236 237 237 236 237 238 239 240 240 240 241 241 241 242 244 243 242 238 235 233 234 236 236 235 233 231 230 229
308 29 337 302 341 322 281 274 259 193 250 178 140 287 312 280 224 242 255 276 330 319 295 318 0 3 30 55 57 47 33 30 31 30 21 13 14 12 15 18 20 24 358 280 274 278 270 259 249 241 235 231 231 232 232 232 232 231 232 233 233 233 233 234 234 235 236 237 238 239 240 240 239 239 239 240 242 242 242 243 244 243 244 244 244 243 239 236 234 233 235 237 238 236 231 228 228
305 360 17 301 348 316 280 280 39 235 233 164 142 274 290 259 251 257 269 298 325 306 299 345 34 46 57 64 58 48 36 32 31 26 20 18 19 18 20 23 31 40 49 62 55 347 291 268 252 242 235 233 233 232 231 231 231 231 233 234 234 234 234 235 236 237 239 240 239 240 242 243 243 243 242 242 243 244 245 245 246 246 245 245 244 243 240 238 236 234 235 236 237 235 231 226 226
306 312 351 313 313 280 291 299 337 324 291 148 145 212 259 271 278 277 281 293 307 302 309 3 46 68 70 63 59 52 40 35 31 26 22 22 22 24 26 28 36 44 53 61 63 62 58 34 241 236 232 232 230 229 229 229 230 231 233 234 234 235 236 237 238 238 240 241 242 242 243 244 245 244 244 244 244 245 246 246 248 248 247 246 244 243 242 239 237 236 236 237 236 233 231 228 228
18 276 293 316 202 261 306 299 205 219 287 97 124 211 266 275 278 282 292 312 336 320 318 3 56 75 70 62 57 53 40 34 30 26 23 24 25 27 30 34 40 47 55 62 65 68 69 70 80 192 221 226 227 227 228 228 231 232 233 235 237 239 239 239 240 240 240 241 242 245 246 246 244 243 244 245 245 246 247 249 250 250 248 247 246 244 243 240 239 238 238 238 236 232 230 228 230
338 203 247 267 214 250 313 304 227 163 280 42 137 217 284 279 275 285 297 315 340 333 323 12 69 74 66 63 54 51 38 31 26 21 20 24 29 31 35 39 45 51 57 62 65 67 68 70 73 76 82 137 210 220 224 227 230 232 233 235 238 241 243 244 244 243 243 243 244 245 246 245 243 244 245 246 246 246 248 250 251 250 249 249 248 246 244 242 240 239 238 237 237 236 234 231 231
304 280 226 246 229 224 279 296 323 32 62 354 255 219 254 267 278 288 297 318 335 324 330 38 85 78 68 66 55 51 40 36 25 16 17 23 31 37 41 45 50 55 58 62 64 66 67 68 70 71 73 77 82 102 143 177 194 202 207 211 219 225 233 240 244 246 246 246 245 245 244 243 243 245 247 247 246 246 247 249 250 250 249 249 249 248 246 244 241 240 239 238 237 237 238 237 235
233 242 232 266 262 241 254 267 299 356 15 314 295 275 264 274 280 284 299 326 317 313 16 79 92 79 71 63 57 54 46 44 27 17 21 28 34 39 44 49 53 56 59 62 64 66 67 67 69 71 72 76 80 84 90 98 107 112 118 122 125 127 153 205 231 249 252 251 249 248 247 245 245 245 247 248 248 247 247 248 249 250 250 250 248 247 244 241 239 239 239 239 237 237 240 242 240
202 220 209 245 270 263 257 250 260 337 347 296 279 266 271 287 290 291 310 59 306 341 74 88 83 77 71 64 60 54 52 45 28 27 32 35 38 42 46 50 55 58 59 61 64 64 64 65 68 68 69 73 76 79 83 87 89 88 88 88 85 83 82 84 81 60 334 283 270 263 258 254 252 250 249 250 250 251 250 250 251 252 252 250 248 246 244 243 242 240 240 239 237 237 239 240 241
172 222 235 246 256 270 265 258 274 358 296 275 259 248 273 285 291 299 330 45 34 54 92 88 77 77 67 69 64 56 56 44 34 37 39 41 42 45 47 51 56 58 58 60 62 61 61 63 65 65 65 68 68 67 69 72 73 73 73 72 70 70 69 67 62 54 42 20 356 333 306 286 272 265 261 258 257 256 255 255 254 254 254 252 250 250 248 247 244 243 241 239 238 238 239 239 237
239 238 262 269 248 258 262 253 284 338 159 267 314 349 295 286 293 315 2 42 29 54 97 92 87 85 71 72 65 61 61 42 41 40 39 42 43 46 48 50 53 54 55 58 60 60 62 64 63 63 64 66 66 65 67 67 67 70 71 70 69 69 65 59 55 48 38 28 19 11 2 350 333 312 294 282 275 271 266 263 261 259 258 256 254 251 248 246 244 242 241 239 238 238 241 241 235
220 207 226 260 238 264 282 278 307 351 150 273 333 350 290 283 304 5 33 62 49 45 73 76 83 84 72 70 65 63 62 46 42 37 36 40 42 47 48 48 49 51 54 58 62 63 64 64 65 65 64 64 64 65 67 68 70 73 75 74 72 69 63 57 56 52 46 40 32 24 19 13 6 356 338 317 300 291 284 277 273 268 264 261 258 254 250 247 245 243 242 241 240 238 240 241 236
210 186 187 249 241 206 277 292 319 335 309 275 321 320 283 277 348 57 42 70 76 60 64 61 61 73 69 65 60 56 60 51 45 38 33 36 40 44 46 47 48 49 51 54 59 62 63 65 66 68 67 67 66 66 69 74 77 79 82 81 79 75 66 63 61 56 54 52 47 39 32 26 20 13 2 347 330 316 305 296 288 280 274 269 264 260 255 252 249 247 246 245 241 237 238 240 239
237 207 204 237 249 217 220 279 326 334 343 10 9 331 296 276 219 90 63 64 72 62 65 62 52 60 64 64 58 50 52 48 45 43 33 35 39 42 46 50 51 50 48 48 53 59 64 67 69 70 71 70 70 70 72 78 81 83 88 86 81 75 65 59 55 50 51 52 48 45 40 33 29 25 19 11 359 345 333 321 312 302 293 284 275 269 264 260 257 253 251 248 243 240 240 242 240
271 232 212 220 236 232 229 317 14 8 331 338 34 352 293 302 319 143 129 70 61 51 54 59 48 45 51 57 53 46 50 49 47 47 41 42 44 46 48 52 54 53 51 52 55 60 64 67 70 72 73 73 73 74 74 78 78 77 78 75 69 65 58 53 51 49 50 48 43 44 42 36 32 30 27 23 17 9 359 347 336 326 317 307 296 287 278 271 265 261 258 254 250 247 245 243 241
269 249 208 207 211 222 232 174 83 138 255 296 50 88 270 309 314 189 148 90 72 62 54 55 46 43 49 54 52 44 44 45 48 47 43 45 47 48 47 48 53 55 55 59 62 63 65 67 69 70 70 71 73 77 80 81 80 78 78 75 70 66 60 55 55 56 56 54 53 49 41 33 25 22 22 21 18 14 10 4 356 345 336 327 318 308 300 292 282 276 270 262 259 255 248 242 243
237 249 144 136 147 171 188 135 138 217 254 317 9 140 255 292 280 197 139 108 86 73 66 65 58 57 58 54 52 47 40 36 46 52 43 43 48 52 51 50 55 59 61 63 63 63 65 67 69 70 70 70 70 75 79 80 81 81 81 80 75 71 66 61 60 60 60 59 59 54 48 42 30 18 10 4 360 357 357 357 355 352 348 343 335 326 319 311 302 293 284 274 269 262 254 248 248
243 222 119 111 134 151 135 106 117 296 360 306 277 145 243 270 274 182 138 134 136 135 123 106 94 89 81 65 51 41 40 37 40 52 49 46 49 55 60 59 59 62 64 66 66 66 67 67 70 71 70 69 70 72 75 76 77 78 79 79 77 74 72 70 67 63 61 59 57 53 50 49 44 38 28 12 359 352 346 342 341 342 344 343 340 337 332 326 319 309 300 290 281 274 266 259 253
225 151 90 59 68 81 80 100 107 33 342 252 214 171 210 267 281 202 168 199 183 162 148 146 145 125 100 78 64 43 36 38 36 48 52 54 57 60 65 65 63 63 66 69 70 69 69 68 69 70 68 67 69 71 72 72 72 71 71 71 71 70 69 69 67 62 58 56 54 50 47 44 42 41 37 29 17 9 0 350 342 337 337 337 336 337 338 336 333 326 318 307 295 286 279 271 263
126 89 52 26 21 33 42 65 79 54 284 252 210 188 188 261 286 204 194 243 178 155 150 168 168 143 121 89 73 54 38 38 36 44 52 59 64 66 67 66 64 65 67 69 70 69 70 69 69 69 66 66 68 69 70 69 68 67 66 66 65 64 62 62 61 57 54 53 52 51 48 46 42 37 33 27 21 15 10 3 356 346 338 335 333 334 335 336 336 333 329 322 312 301 292 284 275
96 81 69 36 341 7 19 360 45 124 253 264 225 181 170 225 261 227 260 309 179 161 163 169 166 161 151 117 86 64 47 46 44 44 51 57 59 60 62 62 62 64 65 66 67 69 70 70 71 69 66 65 66 67 69 68 67 66 65 64 63 61 60 59 57 54 51 51 50 49 49 47 44 40 35 30 25 18 13 8 3 356 349 341 336 332 330 332 332 330 328 326 322 315 307 298 288
85 99 102 94 309 344 349 297 261 219 250 266 183 143 166 237 245 256 310 332 329 153 152 159 159 159 157 135 116 84 57 52 54 51 49 52 52 53 57 58 59 61 62 64 67 69 70 69 70 69 66 66 68 68 69 68 67 66 65 64 63 61 60 58 56 53 50 48 47 46 45 43 42 40 36 33 30 25 21 17 12 6 357 346 336 330 327 327 326 326 325 323 321 320 316 310 300
137 144 139 143 174 206 256 257 262 264 266 276 167 148 242 266 292 340 327 331 340 116 128 149 149 147 153 144 134 110 77 57 55 59 55 52 52 55 59 62 62 63 64 66 68 69 70 70 70 70 68 68 69 69 69 68 67 66 66 65 64 62 60 58 56 53 50 47 45 43 42 40 38 36 34 32 30 28 27 24 21 17 9 358 344 332 325 321 319 319 320 320 319 318 317 315 310
177 159 140 153 164 172 218 228 216 252 280 295 258 182 202 216 287 327 342 360 23 95 114 120 113 123 136 130 129 122 95 70 57 60 59 57 59 62 65 67 68 68 68 69 71 71 72 70 69 69 68 67 68 68 67 67 66 64 63 62 60 59 57 56 54 51 48 46 43 41 39 36 34 32 30 28 26 24 24 23 22 20 17 13 5 355 343 332 324 317 314 314 313 315 315 313 311
228 131 113 172 187 171 212 217 179 189 286 290 243 218 203 177 219 341 45 45 48 76 98 107 112 126 133 137 150 141 119 95 80 82 75 68 72 72 70 70 69 70 72 72 72 73 73 72 71 70 67 67 67 66 65 64 62 61 58 57 54 52 50 49 47 44 42 39 36 35 33 30 28 25 23 21 20 19 17 16 15 14 13 12 9 6 1 353 345 334 326 319 312 311 312 309 309
173 121 174 217 177 133 138 271 172 106 244 261 219 223 277 339 274 34 73 77 86 101 119 130 150 162 157 171 178 164 159 149 130 121 106 87 81 78 75 73 71 71 72 72 72 73 75 75 75 73 70 68 66 64 62 60 58 57 54 51 48 45 43 41 38 36 33 31 28 26 24 21 19 16 15 13 12 11 10 9 8 7 6 5 3 2 360 357 354 348 344 337 329 321 313 307 306
129 169 214 209 118 86 100 235 330 24 243 272 283 226 247 255 250 317 110 167 182 183 169 162 181 185 183 193 191 187 183 168 156 140 116 99 92 88 87 82 78 77 75 74 74 75 77 77 75 73 70 66 64 61 58 55 52 50 48 45 41 38 36 34 32 29 26 23 21 18 16 14 12 9 7 5 4 3 3 2 1 360 359 358 356 355 353 350 349 347 346 344 340 335 326 317 311
129 192 205 124 146 273 83 173 226 249 246 280 295 268 241 213 211 190 196 201 192 188 183 185 196 196 196 202 199 197 188 177 171 155 130 111 105 103 104 103 98 95 91 85 81 78 78 76 73 71 68 65 61 57 54 50 47 46 43 40 36 32 29 26 24 21 18 16 13 10 8 5 4 2 360 359 358 357 356 355 354 353 352 351 349 349 348 345 342 340 339 339 338 337 332 327 324
61 173 298 64 167 183 170 175 179 211 238 261 283 287 269 236 203 183 200 199 180 178 185 194 200 196 197 197 192 194 189 188 182 166 156 137 127 119 116 119 117 115 115 109 97 86 80 75 71 70 66 63 58 52 49 46 42 41 37 34 31 26 23 19 16 14 10 8 5 1 359 357 356 355 353 352 352 351 350 348 347 346 345 344 343 342 342 340 337 335 333 332 331 330 328 326 325
122 166 238 260 213 168 247 232 136 155 206 226 255 270 265 257 200 187 203 192 174 179 181 188 201 201 202 199 192 192 189 187 182 168 162 155 150 145 137 137 136 136 139 135 120 105 91 82 76 70 64 61 57 52 49 45 41 38 33 30 24 18 15 11 8 7 3 360 357 354 352 349 348 347 347 346 345 345 344 342 341 340 340 339 337 337 337 335 332 330 328 326 325 324 320 319 319
149 173 200 193 169 136 250 260 200 140 191 191 207 259 271 267 245 217 195 171 172 179 176 182 201 202 200 204 198 192 188 183 178 171 163 163 170 176 168 162 157 151 152 149 143 140 132 125 112 99 89 83 76 67 62 57 50 42 34 27 19 11 6 2 359 357 353 351 348 347 346 343 341 340 340 339 339 338 338 337 336 335 334 333 332 331 331 331 329 326 324 322 321 319 315 313 312